    Orbital elements:
    2023 LQ                                                  Earth MOID = 0.0075 AU
    Epoch 2023 Feb. 25.0 TT = JDT 2460000.5                 Veres                   
    M 307.69526              (2000.0)            P               Q                  
    n   0.57392868     Peri.  162.45570     -0.44506535     +0.84776109             
    a   1.4340493      Node    80.28130     -0.85270024     -0.30280531             
    e   0.2939800      Incl.   17.01821     -0.27353086     -0.43544238             
    P   1.72           H   25.96          G   0.15           U   7                  
    Residuals in seconds of arc
    230610 703  0.6-  0.4-    230610 G34  0.4-  0.4-    230610 958  0.3-  0.4-
    230610 703  0.1+  0.6-    230610 G34  1.1+  0.7-    230610 L65  0.8-  0.4+
    230610 703  0.1+  0.7+    230610 K74  0.2-  0.4+    230610 L38  0.2-  0.5-
    230610 703  0.1-  0.3-    230610 K74  0.2-  0.5+    230610 L65  0.1-  0.5+
    230610 I52  0.2+  0.2+    230610 B72  0.1-  0.4-    230610 Z80  0.0   0.2+
    230610 I52  0.2-  0.0     230610 K74  0.2-  0.3+    230610 L38  0.1+  0.2-
    230610 I52  0.0   0.0     230610 B72  0.1+  0.2-    230610 C77  0.2+  0.5-
    230610 I52  0.0   0.0     230610 K74  0.0   0.6+    230610 M21  0.0   0.9-
    230610 H01  0.1-  0.1-    230610 L01  0.4-  0.4+    230610 C77  0.2+  0.6-
    230610 H01  0.1+  0.1-    230610 L01  0.7-  0.5+    230610 C77  0.6+  1.0-
    230610 H01  0.1+  0.1+    230610 B72  0.4-  0.1-    230610 L38  0.0   0.6-
    230610 H01  0.0   0.3+    230610 L01  0.5-  0.6+    230610 Z80  1.2+  0.7-
    230610 I52  0.1+  0.0     230610 K74  0.1+  0.2+    230610 104  0.1+  0.0
    230610 I52  0.4+  0.2+    230610 L01  0.2-  0.4+    230610 104  0.2-  0.0
    230610 I52  0.0   0.3+    230610 L01  0.4-  0.9+    230610 104  0.2-  0.3-
    230610 I52  0.4-  0.5+    230610 L01  0.3-  1.2+    230611 H21  0.3-  0.3-
    230610 I52  0.3+  0.2-    230610 K74  0.3-  0.3+    230611 H21  0.1-  0.2+
    230610 I52  0.0   0.1+    230610 958  0.0   0.3+    230611 H21  0.1-  0.0
    230610 I52  0.1+  0.0     230610 L65  0.9+  0.2+    230611 H21  0.1+  0.1-
    230610 M28  1.3+  1.2-    230610 958  0.3+  0.2-    230611 Y05  0.1+  0.9+
    230610 M28  0.6+  0.3-    230610 L38  0.6+  0.1-    230611 Y05  0.3+  0.4+
    230610 M28  1.0+  0.5+    230610 L38  0.2-  0.9-    230611 Y05  0.3+  0.0
    230610 G34  0.5-  0.0     230610 L38  0.3-  1.0-
    
    Ephemeris:
    2023 LQ                  a,e,i = 1.43, 0.29, 17                  q = 1.0125
    Date    TT    R. A. (2000) Decl.     Delta      r    Elong.  Phase     V
    2023 05 12    14 18 42.4 +72 43 56   0.1777  1.0221    88.9    81.1    25.1
    ...
    2023 05 27    14 19 24.0 +69 39 43   0.09579 1.0125    86.9    87.6    24.0
    ...
    2023 06 04    14 21 17.1 +63 38 25   0.04964 1.0151    89.5    87.7    22.6
    ...
    2023 06 10    14 24 42.5 +36 39 58   0.01657 1.0206   108.7    70.4    19.6
    2023 06 11    14 25 48.0 +19 09 13   0.01252 1.0218   121.1    58.3    18.6
    2023 06 12    14 27 14.8 -09 14 59   0.01049 1.0230   136.8    42.8    17.8
    ...
    2023 06 18    15 45 21.9 -87 24 52   0.03645 1.0323   115.6    62.6    21.1
    ...
    2023 06 26    01 43 02.3 -83 09 18   0.08300 1.0487   110.7    65.0    23.0
    ...
    2023 07 11    01 20 03.7 -79 59 41   0.1691  1.0908   111.8    59.9    24.4
    
    M. P. C. Staff               (C) Copyright 2023 MPC           M.P.E.C. 2023-L53
    


    Read MPEC 2023-L52 Read MPEC 2023-L54


    MPEC number:

    Enter an MPEC number in one of the following forms:

    • 1997-B01 (the full form)
    • J97B01 (the packed version of the full form)
    • B01 (the abbreviated form)